Weather in Luzhok

Russia / Kostroma Oblast     58°20′50″N   41°29′42″E
temp.,
°C
wind,
m/s
gust,
m/s
humid.,
%
clouds,
%
prec.,
mm/h
press.,
hPa
HPBL,
m
15 april, thu
thu1500:00+9sw2376100 0.0 101838
03:00+8n2592100 0.0 101991
06:00+9nne3796100 0.0 1019408
09:00+9nne4890100 0.0 1021421
12:00+10nne5882100 0.0 1022725
15:00+9ne5977100 0.0 1023799
18:00+7ne51181100 0.1 1024693
21:00+6ene51282100 0.3 1026698
16 april, fri
fri1600:00+5ene5128299 0.0 1026693
03:00+4ene5117690 0.0 1027543
06:00+3ene51172100 0.0 1028508
09:00+6ene595549 0.0 1029623
12:00+10ene57405 0.0 10291016
15:00+11ene573720 0.0 10281203
18:00+9ene484815 0.0 1029887
21:00+5ene310705 0.0 1030272
17 april, sat
sat1700:00+3ene310795 0.0 1031250
03:00+2ene3108452 0.0 1031213
06:00+1ene39835 0.0 1032224
09:00+7ene48555 0.0 1032600
12:00+11ene46425 0.0 10311260
15:00+12ene45393 0.0 10301466
18:00+10ne37493 0.0 1029460
21:00+5ne38715 0.0 1030165
18 april, sun
sun1800:00+3ne39780 0.0 1030187
03:00+2ne398291 0.0 1030194
06:00+3ne3979100 0.0 1030274
09:00+7ene4659100 0.0 1030557
12:00+10ne4644100 0.0 10301183
15:00+12ne5643100 0.0 10291533
18:00+10ne4854100 0.0 1029493
21:00+6e51073100 0.0 1031531
19 april, mon
mon1900:00+4e3977100 0.0 1032484
03:00+2ene388389 0.0 1033258
06:00+1ene3973100 0.0 1033320
09:00+5e4749100 0.0 1033746
12:00+8e4538100 0.0 10331444
15:00+9e453310 0.0 10321739
18:00+8e354010 0.0 1032528
21:00+3e26595 0.0 1032112